Tracking 17925 objects as of 19-February-2017
HD Live streaming from Space Station
objects crossing your sky now

COSMOS 2318 (GLONASS)

Track COSMOS 2318 (GLONASS) now!
COSMOS 2318 (GLONASS) is classified as:


NORAD ID: 23622
Int'l Code: 1995-037C
Perigee: 19,079.8 km
Apogee: 19,194.6 km
Inclination: 66.4 °
Period: 675.7 minutes
Semi major axis: 25508 km
RCS: 3.5243 m2 (large)
Launch date: July 24, 1995
Source: Commonwealth of Independent States (former USSR) (CIS)
Launch site: TYURATAM MISSILE AND SPACE COMPLEX (TTMTR)
SV:
Your satellite tracking list
Your tracking list is empty





NASA's NSSDC Master Catalog

Two Line Element Set (TLE):
1 23622U 95037C   17049.94478865 -.00000047 +00000-0 +00000-0 0  9993
2 23622 066.3826 314.1062 0022506 106.4442 174.3137 02.13101283167664
Source of the keplerian elements: AFSPC